Location: Ash Observatory
(39.7321°N, 75.2004°W)
Time: 16:30:01
(UTC-04:00)

Envisat - Pass Details

Date: 28 March 2019
Orbit: 764 x 766 km, 98.2° (Epoch: 22 April)

Event Time Altitude Azimuth Distance (km) Brightness Sun altitude
Rises 20:54:33 0° 210° (SSW) 3,219 6.4 -18.4°
Reaches altitude 10° 20:57:47 10° 232° (SW) 2,299 5.9 -18.9°
Maximum altitude 21:00:46 16° 269° (W) 1,939 6.0 -19.5°
Drops below altitude 10° 21:03:46 10° 305° (NW) 2,308 6.6 -20.0°
Sets 21:07:03 0° 328° (NNW) 3,239 7.1 -20.6°
